Regional Weather Roundup
Issued by NWS

Home | Current Version | Previous Version | Graphics & Text | Print | Product List | Glossary On
Versions: 1 2 3 4 5 6 7 8 9 10 11 12 13 14 15 16 17 18 19 20 21 22 23 24 25 26 27 28 29 30 31 32 33 34 35 36 37 38 39 40 41 42 43 44 45 46 47 48 49 50
000
ASUS45 KCYS 261110
RWRWY

WYOMING REGIONAL WEATHER ROUNDUP
NATIONAL WEATHER SERVICE CHEYENNE WY
500 AM MDT SUN APR 26 2015

NOTE:  "FAIR" INDICATES FEW OR NO CLOUDS BELOW 12,000 FEET
WITH NO SIGNIFICANT WEATHER AND/OR OBSTRUCTIONS TO VISIBILITY.

WYZ001-261200-
YELLOWSTONE NATIONAL PARK

CITY           SKY/WX    TMP DP  RH WIND       PRES   REMARKS
LK YELLOWSTONE   N/A     31  28  89 CALM      29.83R
W YELLOWSTONE  NOT AVBL

$$
WYZ002>013-054>058-071-098>099-261200-
NORTHERN WYOMING

CITY           SKY/WX    TMP DP  RH WIND       PRES   REMARKS
JACKSON        CLOUDY    34  34 100 N10       29.76S WCI  26
CODY           CLOUDY    39  28  65 N20       29.86R WCI  30
GREYBULL       MOCLDY    41  36  82 NE3       29.83R
WORLAND        CLOUDY    38  34  85 CALM      29.83S
SHERIDAN       CLOUDY    40  34  79 CALM      29.92S
BUFFALO        CLOUDY    38  32  79 NW5       29.91R WCI  34
GILLETTE       CLOUDY    39  35  86 N9        29.91R WCI  33
HULETT         CLOUDY    39  36  87 NE9       29.93R WCI  33
NEWCASTLE      PTSUNNY   41  41 100 NW5       29.87S

$$
WYZ014>020-022>026-101>103-261200-
CENTRAL WYOMING

CITY           SKY/WX    TMP DP  RH WIND       PRES   REMARKS
BIG PINEY      LGT RAIN  37  35  92 SE13G22   29.74F WCI  29
PINEDALE       LGT RAIN  36  36 100 CALM      29.75S
DUBOIS         LGT SNOW  30  30 100 SE8       29.80S WCI  23
LANDER         LGT SNOW  34  33  96 NW10      29.80R FOG     WCI  26
RIVERTON       RAIN      37  34  89 E12       29.81R FOG     WCI  29
CASPER         LGT RAIN  38  36  92 NE10      29.85R FOG     WCI  31
DOUGLAS        LGT RAIN  41  39  93 N7        29.85S

$$
WYZ021-027>030-104>119-261200-
SOUTHERN WYOMING

CITY           SKY/WX    TMP DP  RH WIND       PRES   REMARKS
EVANSTON       SNOW      32  31  96 SW9       29.74R VSB 1/4 WCI  24
KEMMERER       LGT RAIN  36  34  93 N3        29.72S
FORT BRIDGER   LGT RAIN  37  37 100 W9        29.74S WCI  31
ROCK SPRINGS   FAIR      38  34  85 SE18      29.72S WCI  28
DIXON          FAIR      41  35  79 E5        29.77S
RAWLINS        CLOUDY    39  35  86 NE6       29.78F WCI  35
SARATOGA       FAIR      36  34  93 MISG      29.78S
LARAMIE        CLOUDY    35  34  96 W3        29.80S
CHEYENNE       CLOUDY    42  41  96 SE14      29.81S FOG
TORRINGTON     LGT RAIN  48  46  93 E9        29.81R
PINE BLUFFS    LGT RAIN  45  43  93 S9        29.83R

$$


USA.gov is the U.S. government's official web portal to all federal, state and local government web resources and services.